Lancaster, PA

8:56 AM EST on December 07, 2016 (GMT -0500)
Lancaster

Weather History for KLNS - September, 2012

Change the Weather History Date:

Monday, September 10, 2012

  Actual Average Record
Temperature  
Mean Temperature 60 °F -  
Max Temperature 72 °F 80 °F 95 °F (1983)
Min Temperature 51 °F 57 °F 41 °F (1986)
Degree Days  
Heating Degree Days 4    
Growing Degree Days 10 (Base 50)    
Moisture  
Dew Point 48 °F    
Average Humidity 66    
Maximum Humidity 93    
Minimum Humidity 39    
Precipitation  
Precipitation 0.00 in - - ()
Sea Level Pressure  
Sea Level Pressure 30.06 in    
Wind  
Wind Speed 7 mph (NW)    
Max Wind Speed 14 mph    
Max Gust Speed 24 mph    
Visibility 10 miles    
Events      
Averages and records for this station are not official NWS values.
T = Trace of Precipitation, MM = Missing Value Source: NWS Daily Summary

Daily Weather History Graph

Daily Weather History Graph

Search for Another Location

Airport or City:

Trip Planner

Search our weather history database for the weather conditions in past years. The results will help you decide how hot, cold, wet, or windy it might be!

Date:

Astronomy

Sep. 10, 2012 Rise Set
Actual Time 6:41 AM EDT 7:21 PM EDT
Civil Twilight 6:14 AM EDT 7:48 PM EDT
Nautical Twilight 5:42 AM EDT 8:21 PM EDT
Astronomical Twilight 5:08 AM EDT 8:54 PM EDT
Moon 1:00 AM EDT (9/10) 3:49 PM EDT (9/10)
Length of Visible Light 13h 34m
Length of Day
12h 39m
Waning Crescent, 30% of the Moon is Illuminated
Sep 10
Waning Crescent
Sep 15
New
Sep 22
First Quarter
Sep 29
Full
Oct 8
Last Quarter

Hourly Weather History & Observations

Time (EDT) Temp. Dew Point Humidity Pressure Visibility Wind Dir Wind Speed Gust Speed Precip Events Conditions
12:53 AM 57.0 °F 52.0 °F 83% 29.96 in 10.0 mi NW 3.5 mph - N/A   Clear
1:53 AM 55.0 °F 51.1 °F 86% 29.96 in 10.0 mi WNW 5.8 mph - N/A   Clear
2:53 AM 55.0 °F 51.1 °F 86% 29.97 in 10.0 mi NW 5.8 mph - N/A   Clear
3:53 AM 54.0 °F 50.0 °F 86% 29.97 in 10.0 mi WNW 5.8 mph - N/A   Clear
4:53 AM 52.0 °F 50.0 °F 93% 29.99 in 10.0 mi WNW 5.8 mph - N/A   Clear
5:53 AM 52.0 °F 48.9 °F 89% 30.00 in 10.0 mi West 3.5 mph - N/A   Clear
6:53 AM 51.1 °F 48.9 °F 92% 30.03 in 10.0 mi West 4.6 mph - N/A   Clear
7:53 AM 55.9 °F 52.0 °F 87% 30.06 in 10.0 mi WNW 4.6 mph - N/A   Clear
8:53 AM 61.0 °F 53.1 °F 75% 30.07 in 10.0 mi WNW 9.2 mph - N/A   Clear
9:53 AM 64.0 °F 50.0 °F 60% 30.08 in 10.0 mi NNW 12.7 mph 18.4 mph N/A   Clear
10:53 AM 66.9 °F 50.0 °F 54% 30.09 in 10.0 mi NNW 13.8 mph 17.3 mph N/A   Clear
11:53 AM 68.0 °F 48.0 °F 49% 30.09 in 10.0 mi NW 12.7 mph 20.7 mph N/A   Scattered Clouds
12:53 PM 70.0 °F 46.0 °F 42% 30.08 in 10.0 mi NW 10.4 mph 18.4 mph N/A   Clear
1:53 PM 70.0 °F 45.0 °F 41% 30.07 in 10.0 mi NNW 12.7 mph 20.7 mph N/A   Clear
3:53 PM 68.0 °F 45.0 °F 43% 30.06 in 10.0 mi NNW 13.8 mph 23.0 mph N/A   Mostly Cloudy
4:53 PM 70.0 °F 44.1 °F 39% 30.06 in 10.0 mi NNW 13.8 mph 24.2 mph N/A   Scattered Clouds
5:53 PM 68.0 °F 43.0 °F 40% 30.08 in 10.0 mi NNW 12.7 mph 19.6 mph N/A   Partly Cloudy
6:53 PM 66.0 °F 44.1 °F 45% 30.10 in 10.0 mi NNW 6.9 mph - N/A   Clear
7:53 PM 60.1 °F 46.9 °F 62% 30.10 in 10.0 mi NW 3.5 mph - N/A   Clear
8:53 PM 59.0 °F 46.9 °F 64% 30.13 in 10.0 mi WNW 3.5 mph - N/A   Clear
9:53 PM 57.0 °F 46.0 °F 67% 30.14 in 10.0 mi NNW 4.6 mph - N/A   Clear
10:53 PM 55.0 °F 46.0 °F 72% 30.16 in 10.0 mi NNW 4.6 mph - N/A   Clear
11:53 PM 55.0 °F 45.0 °F 69% 30.17 in 10.0 mi NW 3.5 mph - N/A   Clear